TimeEST,TemperatureF,Dew PointF,Humidity,Sea Level PressureIn,VisibilityMPH,Wind Direction,Wind SpeedMPH,Gust SpeedMPH,PrecipitationIn,Events,Conditions,WindDirDegrees,DateUTC
12:26 AM,32.0,28.4,87,29.93,6.0,North,3.5,-,0.00,Snow,Light Snow,10,2013-02-06 05:26:00
12:51 AM,32.0,28.0,85,29.93,6.0,NNW,3.5,-,0.00,Snow,Light Snow,340,2013-02-06 05:51:00
1:51 AM,30.9,28.9,92,29.94,5.0,North,4.6,-,0.00,Snow,Light Snow,350,2013-02-06 06:51:00
2:37 AM,30.2,28.4,93,29.94,4.0,North,4.6,-,0.00,,Light Freezing Drizzle,350,2013-02-06 07:37:00
2:51 AM,30.9,28.0,89,29.94,4.0,North,5.8,-,0.00,,Light Freezing Drizzle,350,2013-02-06 07:51:00
3:44 AM,30.2,28.4,93,29.95,5.0,Calm,Calm,-,0.00,,Light Freezing Drizzle,0,2013-02-06 08:44:00
3:51 AM,30.9,28.9,92,29.95,5.0,Calm,Calm,-,0.00,,Light Freezing Drizzle,0,2013-02-06 08:51:00
4:13 AM,30.2,30.2,100,29.96,5.0,Calm,Calm,-,0.00,,Overcast,0,2013-02-06 09:13:00
4:51 AM,32.0,28.9,88,29.97,5.0,West,5.8,-,0.00,,Overcast,270,2013-02-06 09:51:00
5:51 AM,30.9,27.0,85,30.00,6.0,West,9.2,-,N/A,,Mostly Cloudy,280,2013-02-06 10:51:00
6:16 AM,30.2,26.6,86,30.01,7.0,West,5.8,-,N/A,,Scattered Clouds,270,2013-02-06 11:16:00
6:51 AM,30.9,27.0,85,30.03,6.0,West,5.8,-,N/A,,Mostly Cloudy,270,2013-02-06 11:51:00
7:51 AM,30.9,27.0,85,30.06,5.0,West,9.2,-,N/A,,Scattered Clouds,260,2013-02-06 12:51:00
8:51 AM,34.0,27.0,75,30.08,7.0,West,8.1,-,N/A,,Partly Cloudy,270,2013-02-06 13:51:00
9:51 AM,36.0,24.1,62,30.10,10.0,WNW,13.8,-,N/A,,Scattered Clouds,290,2013-02-06 14:51:00
10:51 AM,37.9,21.9,53,30.12,10.0,WNW,16.1,-,N/A,,Scattered Clouds,300,2013-02-06 15:51:00
11:51 AM,39.0,19.0,45,30.10,10.0,WNW,16.1,23.0,N/A,,Mostly Cloudy,290,2013-02-06 16:51:00
12:51 PM,37.9,18.0,45,30.11,10.0,WNW,17.3,23.0,N/A,,Mostly Cloudy,300,2013-02-06 17:51:00
1:51 PM,39.0,18.0,43,30.12,10.0,WNW,21.9,29.9,N/A,,Mostly Cloudy,300,2013-02-06 18:51:00
2:51 PM,39.9,15.1,36,30.13,10.0,West,19.6,24.2,N/A,,Scattered Clouds,280,2013-02-06 19:51:00
3:51 PM,39.0,15.1,38,30.16,10.0,WNW,17.3,-,N/A,,Mostly Cloudy,290,2013-02-06 20:51:00
4:51 PM,37.9,14.0,38,30.18,10.0,WNW,23.0,28.8,N/A,,Scattered Clouds,300,2013-02-06 21:51:00
5:51 PM,36.0,14.0,41,30.22,10.0,NW,12.7,-,N/A,,Scattered Clouds,310,2013-02-06 22:51:00
6:51 PM,36.0,10.9,36,30.25,10.0,NW,17.3,-,N/A,,Clear,310,2013-02-06 23:51:00
7:51 PM,34.0,10.9,38,30.29,10.0,NW,16.1,24.2,N/A,,Partly Cloudy,310,2013-02-07 00:51:00
8:51 PM,33.1,9.0,37,30.32,10.0,NW,16.1,-,N/A,,Clear,320,2013-02-07 01:51:00
9:51 PM,32.0,1.9,28,30.31,10.0,North,12.7,-,N/A,,Clear,350,2013-02-07 02:51:00
10:51 PM,30.0,1.0,29,30.35,10.0,North,4.6,-,N/A,,Clear,360,2013-02-07 03:51:00
11:51 PM,30.0,-2.0,25,30.37,10.0,NNW,13.8,-,N/A,,Clear,340,2013-02-07 04:51:00